Location: Observatoire de Paris
(48.8363°N, 2.3365°E)
Time: 06:05:25
(UTC+01:00)

Transit 2A Rocket - All Passes

Search period start: 31 July 2021 00:00
Search period end: 10 August 2021 00:00
Orbit: 589 x 913 km, 66.7° (Epoch: 30 July)

Date Brightness Start Highest point End Pass type
(mag) Time Alt. Az. Time Alt. Az. Time Alt. Az.
31 Jul - 00:55:55 10° NW 01:00:40 30° WSW 01:05:42 10° S visible
31 Jul - 13:54:31 10° SE 13:56:47 14° ESE 13:59:06 10° ENE daylight
31 Jul - 15:34:02 10° SW 15:38:30 84° NW 15:43:24 10° NE daylight
31 Jul - 17:18:25 10° WNW 17:21:53 20° NNW 17:25:35 10° NNE daylight
31 Jul - 19:05:28 10° NNW 19:06:33 11° N 19:07:40 10° N daylight
31 Jul - 20:48:33 10° NNW 20:51:30 15° NNE 20:54:33 10° NE daylight
31 Jul - 22:30:24 10° NNW 22:35:29 41° NE 22:40:57 10° ESE visible
01 Aug - 00:12:56 10° NW 00:18:13 46° WSW 00:23:49 10° S visible
01 Aug - 14:51:33 10° SSW 14:55:55 58° ESE 15:00:40 10° NE daylight
01 Aug - 16:34:55 10° W 16:38:52 27° NW 16:43:07 10° NNE daylight
01 Aug - 18:21:30 10° NNW 18:23:15 12° NNW 18:25:03 10° N daylight
01 Aug - 20:06:04 10° N 20:08:15 12° NNE 20:10:30 10° NE daylight
01 Aug - 21:47:55 10° NNW 21:52:35 29° NE 21:57:34 10° E visible
01 Aug - 23:30:10 10° NW 23:35:39 72° WSW 23:41:32 10° SSE visible
02 Aug - 01:14:45 10° WNW 01:17:28 14° WSW 01:20:15 10° SW visible
02 Aug - 14:09:27 10° S 14:13:28 34° ESE 14:17:46 10° NE daylight
02 Aug - 15:51:40 10° WSW 15:55:57 39° NW 16:00:37 10° NNE daylight
02 Aug - 17:37:31 10° NW 17:40:00 14° NNW 17:42:35 10° NNE daylight
02 Aug - 19:23:30 10° N 19:24:57 11° N 19:26:26 10° NNE daylight
02 Aug - 21:05:27 10° NNW 21:09:35 22° NNE 21:13:57 10° E visible
02 Aug - 22:47:30 10° NNW 22:53:00 76° NE 22:58:54 10° SE visible
03 Aug - 00:30:54 10° WNW 00:35:10 22° WSW 00:39:35 10° SSW visible
03 Aug - 13:27:53 10° SSE 13:31:08 20° ESE 13:34:32 10° ENE daylight
03 Aug - 15:08:40 10° SW 15:13:09 62° NW 15:18:03 10° NNE daylight
03 Aug - 16:53:40 10° WNW 16:56:49 17° NNW 17:00:08 10° NNE daylight
03 Aug - 18:40:32 10° NNW 18:41:37 11° N 18:42:44 10° NNE daylight
03 Aug - 20:23:00 10° NNW 20:26:28 17° NNE 20:30:06 10° ENE daylight
03 Aug - 22:04:56 10° NNW 22:10:15 52° NE 22:15:58 10° SE visible
03 Aug - 23:47:44 10° NW 23:52:45 35° WSW 23:58:04 10° S visible
04 Aug - 12:47:34 10° ESE 12:48:54 11° ESE 12:50:16 10° E daylight
04 Aug - 14:25:59 10° SSW 14:30:28 82° ESE 14:35:24 10° NE daylight
04 Aug - 16:10:01 10° W 16:13:43 22° NNW 16:17:41 10° NNE daylight
04 Aug - 17:56:52 10° NNW 17:58:18 11° N 17:59:45 10° N daylight
04 Aug - 19:40:32 10° NNW 19:43:16 14° NNE 19:46:07 10° NE daylight
04 Aug - 21:22:24 10° NNW 21:27:24 36° NE 21:32:46 10° ESE visible
04 Aug - 23:04:51 10° NW 23:10:15 55° WSW 23:16:02 10° SSE visible
05 Aug - 13:43:38 10° S 13:47:56 48° ESE 13:52:36 10° NE daylight
05 Aug - 15:26:36 10° WSW 15:30:43 31° NW 15:35:11 10° NNE daylight
05 Aug - 17:12:54 10° NW 17:15:00 12° NNW 17:17:10 10° N daylight
05 Aug - 18:58:01 10° N 19:00:00 12° NNE 19:02:04 10° NE daylight
05 Aug - 20:39:56 10° NNW 20:44:28 27° NE 20:49:18 10° E daylight
05 Aug - 22:22:07 10° NW 22:27:39 83° WSW 22:33:36 10° SSE visible
06 Aug - 00:06:09 10° WNW 00:09:36 17° WSW 00:13:09 10° SW visible
06 Aug - 13:01:42 10° S 13:05:31 28° ESE 13:09:37 10° NE daylight
06 Aug - 14:43:26 10° WSW 14:47:50 46° NW 14:52:39 10° NNE daylight
06 Aug - 16:28:59 10° WNW 16:31:46 15° NNW 16:34:42 10° NNE daylight
06 Aug - 18:15:18 10° N 18:16:41 11° N 18:18:07 10° NNE daylight
06 Aug - 19:57:28 10° NNW 20:01:25 20° NNE 20:05:35 10° ENE daylight
06 Aug - 21:39:29 10° NNW 21:44:58 67° NE 21:50:52 10° SE visible
06 Aug - 23:22:38 10° NW 23:27:15 26° WSW 23:32:06 10° SSW visible
07 Aug - 12:20:24 10° SE 12:23:14 17° ESE 12:26:11 10° ENE daylight
07 Aug - 14:00:34 10° SW 14:05:05 74° NW 14:10:04 10° NNE daylight
07 Aug - 15:45:12 10° WNW 15:48:37 19° NNW 15:52:14 10° NNE daylight
07 Aug - 17:32:04 10° NNW 17:33:22 11° N 17:34:40 10° NNE daylight
07 Aug - 19:15:00 10° NNW 19:18:16 16° NNE 19:21:41 10° ENE daylight
07 Aug - 20:56:56 10° NNW 21:02:11 45° NE 21:07:50 10° ESE visible
07 Aug - 22:39:35 10° NW 22:44:49 41° WSW 22:50:21 10° S visible
08 Aug - 13:17:59 10° SSW 13:22:27 68° ESE 13:27:22 10° NE daylight
08 Aug - 15:01:38 10° W 15:05:33 25° NW 15:09:45 10° NNE daylight
08 Aug - 16:48:17 10° NNW 16:50:02 12° N 16:51:50 10° N daylight
08 Aug - 18:32:30 10° NNW 18:35:03 13° NNE 18:37:40 10° NE daylight
08 Aug - 20:14:25 10° NNW 20:19:18 32° NE 20:24:32 10° ESE daylight
08 Aug - 21:56:46 10° NW 22:02:17 64° WSW 22:08:10 10° SSE visible
08 Aug - 23:41:59 10° W 23:43:59 12° WSW 23:46:02 10° WSW visible
09 Aug - 12:35:46 10° S 12:39:58 40° ESE 12:44:31 10° NE daylight
09 Aug - 14:18:18 10° WSW 14:22:35 36° NW 14:27:15 10° NNE daylight
09 Aug - 16:04:21 10° NW 16:06:46 13° NNW 16:09:17 10° NNE daylight
09 Aug - 17:49:54 10° N 17:51:45 12° N 17:53:39 10° NNE daylight
09 Aug - 19:31:56 10° NNW 19:36:19 24° NE 19:40:58 10° E daylight
09 Aug - 21:14:04 10° NW 21:19:39 85° NE 21:25:38 10° SE visible
09 Aug - 22:57:43 10° WNW 23:01:43 20° WSW 23:05:52 10° SSW visible
